Weather History for Moline, IL

Change the Weather History Date:

Wednesday, February 5, 2014

  Actual Average Record
Temperature  
Mean Temperature 9 °F 24 °F  
Max Temperature 18 °F 33 °F 63 °F (1946)
Min Temperature 0 °F 15 °F -21 °F (1979)
Degree Days  
Heating Degree Days 56 41  
Month to date heating degree days 284 207  
Since 1 July heating degree days 4551 3941  
Cooling Degree Days 0 0  
Month to date cooling degree days 0 0  
Year to date cooling degree days 0 0  
Moisture  
Dew Point 7 °F    
Average Humidity 76    
Maximum Humidity 84    
Minimum Humidity 68    
Precipitation  
Precipitation 0.13 in 0.04 in 1.21 in (1911)
Month to date precipitation 0.69 0.22  
Year to date precipitation 1.86 1.71  
Snow  
Snow 2.40 in 0.20 in - ()
Month to date snowfall 10.2 1.4  
Since 1 July snowfall 42.7 21.3  
Snow Depth 9.00 in    
Sea Level Pressure  
Sea Level Pressure 30.33 in    
Wind  
Wind Speed 13 mph (NW)    
Max Wind Speed 21 mph    
Max Gust Speed 26 mph    
Visibility 4 miles    
Events Snow    
T = Trace of Precipitation, MM = Missing Value Source: NWS Daily Summary

Daily Weather History Graph

Daily Weather History Graph

Search for Another Location

Airport:

Trip Planner

Search our weather history database for the weather conditions in past years. The results will help you decide how hot, cold, wet, or windy it might be!

Date:

Astronomy

Feb. 05, 2014 Rise Set
Actual Time 7:09 AM CST 5:23 PM CST
Civil Twilight 6:40 AM CST 5:52 PM CST
Nautical Twilight 6:07 AM CST 6:25 PM CST
Astronomical Twilight 5:35 AM CST 6:57 PM CST
Moon 10:19 AM CST (2/5) No Moon Set
Length of Visible Light 11h 12m
Length of Day
10h 13m
Waxing Crescent, 39% of the Moon is Illuminated
Feb 5
Waxing Crescent
Feb 6
First Quarter
Feb 14
Full
Feb 22
Last Quarter
Mar 1
New

Hourly Weather History & Observations

Time (CST) Temp. Windchill Dew Point Humidity Pressure Visibility Wind Dir Wind Speed Gust Speed Precip Events Conditions
12:10 AM 17.6 °F 6.4 °F 12.2 °F 79% 30.15 in 1.2 mi North 9.2 mph - 0.01 in Snow Light Snow
12:52 AM 17.1 °F 8.7 °F 12.9 °F 84% 30.17 in 1.2 mi North 5.8 mph - 0.02 in   Overcast
1:31 AM 17.6 °F 5.0 °F 12.2 °F 79% 30.12 in 1.5 mi North 11.5 mph 18.4 mph 0.01 in   Haze
1:52 AM 18.0 °F 4.8 °F 12.9 °F 81% 30.14 in 1.8 mi North 12.7 mph 21.9 mph 0.01 in   Haze
2:12 AM 17.6 °F 4.3 °F 14.0 °F 86% 30.11 in 1.2 mi North 12.7 mph - 0.01 in   Overcast
2:38 AM 17.6 °F 5.7 °F 14.0 °F 86% 30.11 in 1.5 mi North 10.4 mph 20.7 mph 0.01 in   Overcast
2:52 AM 18.0 °F 5.4 °F 14.0 °F 84% 30.15 in 1.8 mi North 11.5 mph 21.9 mph 0.02 in   Overcast
3:39 AM 17.6 °F 5.0 °F 14.0 °F 86% 30.12 in 1.2 mi North 11.5 mph - 0.01 in   Overcast
3:52 AM 18.0 °F 5.4 °F 12.9 °F 81% 30.16 in 1.2 mi North 11.5 mph 21.9 mph 0.01 in   Haze
4:38 AM 17.6 °F 4.3 °F 12.2 °F 79% 30.15 in 1.8 mi North 12.7 mph - 0.01 in   Haze
4:52 AM 18.0 °F 7.7 °F 12.9 °F 81% 30.18 in 1.5 mi North 8.1 mph - 0.01 in   Haze
5:52 AM 18.0 °F 6.9 °F 12.9 °F 81% 30.21 in 1.5 mi NNW 9.2 mph - 0.01 in   Haze
6:52 AM 17.1 °F 5.8 °F 12.0 °F 81% 30.25 in 1.5 mi NNW 9.2 mph - 0.01 in   Haze
7:02 AM 17.6 °F 7.3 °F 12.2 °F 79% 30.23 in 1.0 mi NNW 8.1 mph - N/A   Haze
7:35 AM 17.6 °F 3.7 °F 12.2 °F 79% 30.24 in 0.8 mi NW 13.8 mph - 0.00 in Snow Light Snow
7:47 AM 17.6 °F 5.0 °F 12.2 °F 79% 30.25 in 1.5 mi NW 11.5 mph - 0.01 in Snow Light Snow
7:48 AM 17.1 °F 4.3 °F 12.0 °F 81% 30.29 in 1.5 mi NNW 11.5 mph - 0.01 in Snow Light Snow
8:15 AM 15.8 °F 1.4 °F 10.4 °F 79% 30.27 in 4.0 mi NW 13.8 mph 23.0 mph 0.00 in   Overcast
8:46 AM 15.8 °F 1.4 °F 10.4 °F 79% 30.29 in 2.0 mi NNW 13.8 mph 26.5 mph 0.00 in Snow Light Snow
8:49 AM 15.8 °F 0.3 °F 10.4 °F 79% 30.29 in 1.0 mi NW 16.1 mph 21.9 mph 0.00 in Snow Light Snow
8:52 AM 16.0 °F -0.9 °F 10.0 °F 77% 30.32 in 1.0 mi NNW 19.6 mph 25.3 mph 0.00 in Snow Light Snow
9:18 AM 15.8 °F 2.1 °F 8.6 °F 73% 30.31 in 2.0 mi NNW 12.7 mph 21.9 mph 0.00 in Snow Light Snow
9:21 AM 15.8 °F 0.9 °F 8.6 °F 73% 30.31 in 4.0 mi NNW 15.0 mph 21.9 mph 0.00 in Snow Light Snow
9:52 AM 15.1 °F 0.5 °F 8.1 °F 74% 30.37 in 6.0 mi NNW 13.8 mph 21.9 mph 0.00 in   Haze
10:52 AM 16.0 °F 2.3 °F 8.1 °F 71% 30.40 in 5.0 mi NNW 12.7 mph 23.0 mph 0.01 in Snow Light Snow
11:08 AM 15.8 °F 0.3 °F 8.6 °F 73% 30.38 in 3.0 mi WNW 16.1 mph 20.7 mph 0.00 in Snow Light Snow
11:45 AM 15.8 °F 3.4 °F 8.6 °F 73% 30.37 in 3.0 mi WNW 10.4 mph - 0.00 in Snow Light Snow
11:52 AM 16.0 °F 0.6 °F 9.0 °F 74% 30.40 in 3.0 mi WNW 16.1 mph - 0.00 in Snow Light Snow
11:54 AM 15.8 °F 0.9 °F 8.6 °F 73% 30.37 in 2.5 mi WNW 15.0 mph - 0.00 in Snow Light Snow
12:52 PM 15.1 °F -0.1 °F 7.0 °F 70% 30.42 in 2.5 mi NW 15.0 mph - 0.00 in   Overcast
12:59 PM 14.0 °F -2.0 °F 6.8 °F 73% 30.38 in 5.0 mi NW 16.1 mph - 0.00 in Snow Light Snow
1:52 PM 14.0 °F -1.4 °F 6.1 °F 71% 30.43 in 10.0 mi WNW 15.0 mph - 0.00 in   Scattered Clouds
2:52 PM 12.9 °F -3.4 °F 5.0 °F 71% 30.44 in 10.0 mi WNW 16.1 mph - N/A   Partly Cloudy
3:52 PM 10.9 °F -7.5 °F 3.0 °F 70% 30.48 in 10.0 mi NW 19.6 mph 23.0 mph N/A   Mostly Cloudy
4:52 PM 9.0 °F -7.9 °F 1.9 °F 73% 30.50 in 5.0 mi WNW 15.0 mph - 0.00 in Snow Light Snow
5:52 PM 8.1 °F -7.7 °F -0.0 °F 70% 30.53 in 9.0 mi WNW 12.7 mph - 0.00 in   Overcast
6:52 PM 6.1 °F -10.2 °F -0.9 °F 73% 30.55 in 10.0 mi WNW 12.7 mph - N/A   Mostly Cloudy
7:52 PM 5.0 °F -14.7 °F -2.0 °F 73% 30.55 in 10.0 mi WNW 18.4 mph 24.2 mph N/A   Overcast
8:52 PM 3.9 °F -13.7 °F -5.1 °F 66% 30.57 in 10.0 mi WNW 13.8 mph - 0.00 in   Partly Cloudy
9:52 PM 3.0 °F -13.3 °F -6.0 °F 66% 30.56 in 10.0 mi WNW 11.5 mph - N/A   Clear
10:52 PM 1.9 °F -13.8 °F -7.1 °F 66% 30.56 in 10.0 mi WNW 10.4 mph - N/A   Clear
11:52 PM -0.0 °F -14.2 °F -9.0 °F 66% 30.55 in 10.0 mi WNW 8.1 mph - N/A   Clear